Погода в Барзасе

Россия / Кемеровская область (Кузбасс)     55°43′46″N   86°18′37″E
темп.,
°C
ветер,
м/с
пор.,
м/с
влажн.,
%
обл.,
%
осадки,
мм/ч
давл.,
гПа
погр.,
м
1 марта, пн
пн101:00−16вюв2497100 0.3 1027120
04:00−14в2696100 0.3 1023189
07:00−13в3696100 1.1 1020208
10:00−12всв3595100 1.0 1016229
13:00−9всв3595100 2.0 1012293
16:00−9всв4895100 0.9 1011289
19:00−11св51194100 2.1 1011339
22:00−12св41094100 0.8 1010412
2 марта, вт
вт201:00−15св4894100 0.9 1011334
04:00−16св4894100 0.1 1011297
07:00−18св379699 0.1 1013242
10:00−17св2595100 0.0 1014244
13:00−13св2391100 0.1 1015306
16:00−11ссв1291100 0.2 1015359
19:00−13ссв2397100 0.4 101677
22:00−16всв229797 0.1 101672
3 марта, ср
ср301:00−19всв119977 0.1 101620
04:00−20всв1110010 0.0 101720
07:00−21вюв0010038 0.0 101820
10:00−16юв019685 0.0 101892
13:00−11ююз238991 0.0 1019410
16:00−10юз2492100 0.1 1019440
19:00−12ююз2296100 0.2 102047
22:00−13ююз259779 0.1 102292
4 марта, чт
чт401:00−12ююз499579 0.2 1023405
04:00−12ююз4119498 0.3 1023568
07:00−12ю6139299 0.4 1024571
10:00−12ю71493100 0.1 1022573
13:00−8ю71393100 1.1 1020824
16:00−6ююз71394100 1.2 1018888
19:00−5ююз61394100 2.4 1018914
22:00−5ююз61394100 1.6 1017897
5 марта, пт
пт501:00−5ююз51389100 3.3 1016736
04:00−7ю51386100 0.0 1015627
07:00−7ю5148499 0.0 1014540
10:00−6ююз61481100 0.0 1011606
13:00−4ююз51394100 0.5 1009702
16:00−2юз61196100 2.2 1009981
19:00−3зюз61293100 3.6 1012841
22:00−4зюз71388100 0.3 10151005